This is the latest recevied weather packets stored in our database for station/object GOLDWX. If no packets are shown the sender has not sent any weather packets the latest 10 day(s).
| Time | Temp. | Humidity | Pressure | Rain* | Wind** | Luminosity | Snow |
|---|---|---|---|---|---|---|---|
| 1777662493 | 22.78° C | 17% | 1017.6 hPa | 0 mm | - | - | - |
| 1777661890 | 22.22° C | 18% | 1017.7 hPa | 0 mm | - | - | - |
| 1777661590 | 22.22° C | 18% | 1017.7 hPa | 0 mm | - | - | - |
| 1777660988 | 22.22° C | 18% | 1017.8 hPa | 0 mm | - | - | - |
| 1777660687 | 22.78° C | 18% | 1017.8 hPa | 0 mm | - | - | - |
| 1777660085 | 22.22° C | 19% | 1017.7 hPa | 0 mm | - | - | - |
| 1777659784 | 22.22° C | 20% | 1017.8 hPa | 0 mm | - | - | - |
| 1777659182 | 21.11° C | 20% | 1018 hPa | 0 mm | - | - | - |
| 1777658882 | 21.11° C | 19% | 1018 hPa | 0 mm | - | - | - |
| 1777658280 | 20.56° C | 21% | 1018.1 hPa | 0 mm | - | - | - |
| 1777657979 | 20.56° C | 20% | 1018.1 hPa | 0 mm | - | - | - |
| 1777657378 | 20.56° C | 20% | 1017.9 hPa | 0 mm | - | - | - |
| 1777657077 | 20.56° C | 22% | 1018 hPa | 0 mm | - | - | - |
| 1777656475 | 20° C | 24% | 1018.1 hPa | 0 mm | - | - | - |
| 1777656174 | 19.44° C | 24% | 1018 hPa | 0 mm | - | - | - |
| 1777655573 | 18.89° C | 23% | 1018 hPa | 0 mm | - | - | - |
| 1777655272 | 18.89° C | 23% | 1018.1 hPa | 0 mm | - | - | - |
| 1777654670 | 18.89° C | 23% | 1018 hPa | 0 mm | - | - | - |
| 1777654369 | 18.33° C | 25% | 1018.1 hPa | 0 mm | - | - | - |
| 1777653768 | 18.33° C | 25% | 1018 hPa | 0 mm | - | - | - |
| 1777653467 | 17.78° C | 24% | 1018 hPa | 0 mm | - | - | - |
| 1777652866 | 17.78° C | 27% | 1018 hPa | 0 mm | - | - | - |
| 1777652564 | 17.22° C | 26% | 1017.9 hPa | 0 mm | - | - | - |
| 1777651963 | 16.67° C | 27% | 1017.9 hPa | 0 mm | - | - | - |
| 1777651662 | 16.67° C | 27% | 1018 hPa | 0 mm | - | - | - |
* Rain since midnight (hover to see other rain measurements)
** Current wind speed in m/s (hover to see current wind gust speed)